TIMESTAMP,CO2_1_1_1,H2O_1_1_1,TAU_1_1_1,TAU_SSITC_TEST_1_1_1,H_1_1_1,H_SSITC_TEST_1_1_1,LE_1_1_1,LE_SSITC_TEST_1_1_1,FC_1_1_1,FC_SSITC_TEST_1_1_1,WD_0_0_1,WS_0_0_1,WS_MAX_0_0_1,U_SIGMA_0_0_1,V_SIGMA_0_0_1,W_SIGMA_0_0_1,USTAR_0_0_1,MO_LENGTH_0_0_1,ZL_0_0_1,FETCH_MAX_0_0_1,FETCH_70_0_0_1,FETCH_80_0_0_1,FETCH_90_0_0_1,PA_0_0_1,RH_0_0_1,TA_0_0_1,VPD_0_0_1,T_SONIC_0_0_1,T_SONIC_SIGMA_0_0_1
[yyyymmddHHMMSS],[mmolCO2 mol-1],[mmolH2O mol-1],[kg m-1 s-2],[#],[W m-2],[#],[W m-2],[#],[umolCO2 m-2 s-1],[#],[Decimal degrees],[m s-1],[m s-1],[m s-1],[m s-1],[m s-1],[m s-1],[m],[#],[m],[m],[m],[m],[kPa],[%],[deg C],[hPa],[deg C],[deg C]
20191206003000,420.21593551262646,4.5324157256528270,0.10239504833530183,0,-3.5335499852674288,0,0.84972345382050496,1,0.33228961394833123,0,126.29420852971370,1.2973553504777688,3.5851392717343362,0.60088992580851586,0.43932788443426452,0.31241896851406709,0.29091194946452931,578.83394120956734,3.28246128074252547E-002,118.26990091663366,216.23509912584171,258.77818643871120,323.95958168456826,93.559408830512155,95.065517241379311,-4.2168965517241190,0.22016704135960483,-4.8423874223497023,5.13906693114906596E-002
20191206010000,420.62946775387246,4.5349605071414860,7.27514302750778136E-002,0,-3.5881164613577723,0,0.16251694237021222,1,0.50489274750172664,0,142.17624080763849,1.3455836071189400,3.0827510205030824,0.50353479211713592,0.38990608562022644,0.28778034620220500,0.24517941380539682,341.34173925063703,5.56626917109860619E-002,110.15220549550983,201.39336288986223,241.01641879657046,301.72395628463062,93.596537296440985,94.916666666666671,-4.1833333333333371,0.22738189491039520,-4.7883917075262730,6.27959082336760899E-002
20191206013000,421.05948921987078,4.5377819313633037,0.12342103052804494,1,3.4856024511203914,2,-1.4828978574636427,1,0.12813063913307310,2,104.64319266553984,9.17537692764617413E-002,2.4697239059687126,0.59854003643373110,0.66121628496394458,0.22311409869224835,0.31929154471261778,-776.14400538196105,-2.44799932335360848E-002,166.79507487041727,304.95459342381469,364.95276183836842,456.87755095148702,93.612830894839007,95.283333333333331,-4.2239999999999895,0.21033605433600372,-4.8821833027562889,7.42488943858863604E-002
20191206020000,421.37666766222981,4.5497986485116897,1.49567240167082852E-002,1,-0.51442710551023652,1,-0.11397593496241587,1,3.43146335907516670E-002,2,308.93520248667375,1.1944376191971604,2.4862188780942858,0.36934931193000997,0.23760469902065484,0.11971228306231065,0.11112869894956025,221.76891151509653,8.56747678030904125E-002,148.59418374365194,1127.0000000000000,1955.0000000000000,4781.0000000000000,93.639161563776611,95.783333333333331,-4.2546666666666511,0.18760547007410991,-4.8938855957804321,4.04716647118907036E-002
20191206023000,421.35167550230807,4.5783533406849122,1.86565275188329584E-002,0,-1.6905888445033670,0,-0.34581921524009979,1,0.27246439421276364,0,304.32632967390907,1.6235921724465849,3.0871826438900678,0.41848598348189675,0.28767650549866541,0.20354778537641335,0.12410558772442200,94.007041397616419,0.20211251963176613,199.62192797336647,1814.0000000000000,3312.0000000000000,8856.0000000000000,93.662243811197911,96.236666666666665,-4.2309999999999945,0.16773452342413181,-4.8579181705050587,3.35639111321663283E-002
20191206030000,421.84607785539629,4.6018258727599379,6.62089665668577632E-002,0,9.55866609394499245E-002,2,2.92546946081310467E-002,2,0.37064891378721698,0,306.70855325799994,2.0394377251161120,4.1811209161471421,0.55008647701470759,0.50095338635759956,0.33947630863573919,0.23375021006764285,-11112.832696547493,-1.70973508904735628E-003,92.898549010289628,169.84817606337950,203.26488691840478,254.46351813290588,93.704515657118051,96.650000000000006,-4.2139999999999986,0.14950307647045746,-4.8646474863687672,3.19739507054159280E-002
20191206033000,421.94848895390646,4.5871262149907546,0.16201213920601026,0,1.0867359538504764,0,0.28070646176396358,2,0.74027691096785742,0,307.33719175963802,1.9760633146020781,4.4168714700106406,0.74093220692517248,0.62068479916302144,0.43514663846203011,0.36555231637444974,-3739.4381714617948,-5.08097717593032280E-003,108.91959696481617,199.13976137542639,238.31943336164881,298.34765055604271,93.739869366319439,96.689999999999998,-4.2570000000000050,0.14724072483193026,-4.9155736991034473,2.82416257094802725E-002
20191206040000,421.50821909977066,4.5885530846887024,0.19755004420836400,0,-3.1727493837606988,0,-0.29273692468815043,0,0.56021723619826669,1,301.45205645374915,2.1466847832886438,5.4195600291274229,0.89579880583594040,0.72715765910433050,0.48203960763134379,0.40362699339367086,1724.5314582372732,1.10174853054990467E-002,108.63577894268056,198.62085151184706,237.69843078637274,297.57022902264345,93.765344938585073,96.523333333333326,-4.2263333333333435,0.15501200639768115,-4.9029488101535321,3.88240630606677198E-002
20191206043000,420.91232216211023,4.5941153975098370,0.38957069038546926,0,1.4808670301778677,1,9.18075823706662186E-002,2,0.45279943306301346,1,298.55900459474617,2.5216332394331049,6.0726111661072277,1.1120062640860697,0.76996998169230302,0.60245655805244769,0.56675484105147322,-10230.583049356102,-1.85717665438391911E-003,119.24234317022348,218.01303370995345,260.90592004506408,326.62325167366731,93.784708493272575,96.616666666666660,-4.2203333333333148,0.15091873264525077,-4.8997282341850905,3.14697333635937590E-002
20191206050000,419.99030042164316,4.6461395269375272,0.28349924648068076,0,5.9876776179723610,2,3.5477947010848223,2,-0.13112332954095923,2,299.01701175616716,2.6456593739389955,6.5817045845906312,1.0372458702833727,0.77977435328768252,0.60535572097392187,0.48359680463312260,-1571.8111616823903,-1.20879660758123914E-002,104.62443290354385,191.28683159910366,228.92148208564112,286.58253075994867,93.776729702256944,96.953333333333333,-4.1179999999999950,0.13695125186653287,-4.7973798438177937,7.62363257183259896E-002
20191206053000,418.38696612145225,4.6805077337999217,0.54173665409678851,0,-15.791975450833927,0,-2.3210925908722233,1,3.5321270033862038,1,297.04548557732522,3.1359248357722240,7.8741553201450332,1.3448164589015696,0.97598597349554816,0.80158001991037386,0.66862990282569856,1575.6178307456814,1.20587617309509659E-002,108.30438220473842,198.01495258132027,236.97332451527828,296.66248201547342,93.812436994791668,96.226666666666659,-3.9146666666666761,0.17222634878345333,-4.5230722868177509,0.10314237919353214
20191206060000,417.25901336534099,4.6757209054364219,0.51063253310804435,0,-3.2176883465760149,1,7.49357006196083308E-002,2,0.29543379276601600,1,296.50030878484563,3.6498506572744192,9.5634081188217834,1.3900798991689050,1.2274174131413593,0.82012649907188662,0.64908316053574688,7078.0411550904946,2.68435850875708547E-003,103.84617337866133,189.86392497447375,227.21862627138191,284.45075734871796,93.880753645616323,95.193333333333328,-3.7746666666666897,0.22170684300911830,-4.3364020165337251,6.71284148682680798E-002
20191206063000,416.55887724220639,4.6135000477699792,0.50096951062686701,0,-7.4333921053480587,1,-7.8146205114512117,2,0.17734556457887354,2,298.36540447252355,3.7573029061793268,8.5999131401491677,1.3382236152647473,1.1665819010351086,0.84515086700305653,0.64307337134156906,2980.1738613535867,6.37546696398788408E-003,100.62732501391271,183.97884356468134,220.17568689462530,275.63383299460816,93.909319225669947,92.396666666666661,-3.5513333333333321,0.35661813772100059,-4.1303876162476172,7.34929950260482662E-002
20191206070000,417.40922448692191,4.4649964647774230,0.68238439866074818,0,-11.051030887426922,0,10.086889116141613,1,-0.19718938835402744,1,301.98870521924630,4.4196982411468699,13.288409923507446,1.7664038573233525,1.4514049352416529,1.0299025084882278,0.75024411101704425,3184.0394095630336,5.96726282436544752E-003,97.180713467099991,177.67733841673461,212.63439465940473,266.19302999840295,93.950878561197911,89.950000000000003,-3.6240000000000236,0.46881698588559856,-4.1981763610839380,9.51540444070306246E-002
20191206073000,417.33405701940711,4.1862696269250907,1.1839420534781251,0,2.6665308850276888,1,37.632858952469995,1,2.5767510702655692,0,295.56469117298917,4.9354472763011863,13.975667809551478,2.2781911864502140,1.6676301568507910,1.1285771817969066,0.98733051565816687,-30087.870629957008,-6.31483704303176501E-004,112.51228263557738,205.70833660990334,246.18034027979417,308.18857320841181,94.010861084935215,86.206666666666663,-3.9083333333333030,0.62986878409737923,-4.4532614656602618,0.12278680835784454
20191206080000,417.17623785566354,3.8544793027685844,1.0713595768098256,0,-12.007812306553443,1,6.0515094464365937,2,0.58345280225215534,1,309.21034440491275,4.4572971281631153,13.461692196509791,2.1040887041634346,1.6107210080632028,1.0277205991038019,0.93802748974594707,5731.9638562378968,3.31474525599510924E-003,116.39311827101889,212.80374188053355,254.67172819694625,318.81878325594028,94.070220406032988,82.325000000000003,-4.3853333333333353,0.77868541791356505,-4.8670559101810795,0.11286270770488496
20191206083000,417.28845275755123,3.6620348627114594,0.94975450394313821,0,4.1260055498166288,2,10.980877465207699,0,-0.14075470776606361,2,300.98847997135709,3.9955748034038496,11.144275344732197,1.8489330724247832,1.5477168276506257,1.0384128370479770,0.88248810462175065,-13895.331180359633,-1.36736575425100795E-003,109.93246070264321,200.99159932449498,240.53561042067224,301.12204125280346,94.120633879774317,79.824666666666673,-4.6483333333333121,0.87137962782849232,-5.1148412517970883,7.96464500933622144E-002
20191206090000,417.26131211408619,3.5896725239327827,0.80442069735835653,0,-5.0176826569122976,1,6.8419104575795027,2,0.28521301324644605,2,305.93048413407473,4.0825447243553450,13.856278426642390,1.8860292900779019,1.4325801178865647,0.96657853679571437,0.81169957162354101,8893.2441214531955,2.13645321555564318E-003,108.88835463516799,199.08264043259956,238.25107418197743,298.26207297488952,94.154425033854167,79.495666666666665,-4.8530000000000086,0.87199549946165922,-5.3134246610005675,7.08721011345702506E-002
20191206093000,416.81802944135876,3.4341556389087571,0.44090411238950883,0,-5.6241920850703115,0,9.8361965009162340,0,0.60196332444090295,0,311.03638963378694,4.2639674167325596,9.5040871340804784,1.5026256375824032,1.4329748980370449,0.88230739300482086,0.60068283707822723,3216.3734634029238,5.90727420686340196E-003,92.060884640106764,168.31665843533688,201.43205147269791,252.16902564704685,94.192308651692713,76.656333333333336,-4.9523333333333426,0.98531008018700394,-5.4028660320705626,6.34539154641888814E-002
20191206100000,416.65087715965052,3.4291683677695972,0.66416770109891854,0,-15.574525489826867,0,11.596849354249567,0,0.61396067922838782,0,306.24947402350136,3.1342879527534757,8.5088369960114694,1.5044550480715979,1.0607680219791846,0.82911424133467260,0.73698849362734453,2145.4776936046323,8.85583665429677015E-003,113.95462749921812,208.34540303293895,249.33623527200552,312.13937924653726,94.212570788411455,77.311333333333337,-5.0810000000000173,0.94837468796890567,-5.5094304555257168,5.88861104237388272E-002
20191206103000,416.79397501262838,3.5194969010828383,0.48750785366842286,0,-4.9564853238313979,1,3.0731218354920045,1,0.57641002546217213,0,302.00669714496723,3.3193223440412654,10.341821388284846,1.4720222572622463,1.1133745628551079,0.76931351223812994,0.63121970045576570,4236.4855969365472,4.48484942654806245E-003,106.88497187132724,195.41981779413751,233.86761098169356,292.77449720880003,94.235494554253478,80.013666666666666,-5.1879999999999882,0.82866793484043288,-5.6043771879407700,4.70067567793320332E-002
20191206110000,416.79525395080617,3.5725366009680473,0.76289535834608635,0,2.9605200296923009,0,4.0489491433369267,0,0.38353443661250125,0,305.90630033127690,4.1251022573239808,10.769847586704801,1.8858617599323133,1.3298417826807236,0.92882831359764018,0.78934543959283632,-13872.077936908165,-1.36965781813036406E-003,109.93101217449795,200.98895095306108,240.53244099646935,301.11807350979899,94.255927990451383,82.096666666666664,-5.3266666666666538,0.73453114206488468,-5.7532598677740907,7.92768593167535729E-002
20191206113000,416.98298316077887,3.5737505520037511,0.90696971084588285,0,9.9877963426531142,1,15.170629972298244,0,1.5110099605784575,0,304.19242831081658,4.2939564920182631,12.226179878446413,1.8262420828164572,1.3753332757964976,1.0625050062548640,0.85983496798769232,-5316.3113281731548,-3.57390657302400190E-003,105.71149001797879,193.27431870337526,231.29999653816492,289.56014860971595,94.294926264564580,84.710000000000008,-5.7286666666666406,0.60841770510180482,-6.1678970914492766,0.16320596810160051
20191206120000,416.53302395307531,3.3519337714921376,0.54921522293279901,0,-0.16951708876953325,2,1.3876735186463374,2,0.29915673137311360,1,297.97558644725484,4.2390206889599567,11.110944455845196,1.8345390638345938,1.4973286569549289,0.96794372305209986,0.66843080394893506,147211.86217000228,1.29065686147346878E-004,93.115070858319243,170.24404705767918,203.73864339171880,255.05660501950680,94.346375034505215,81.743333333333339,-6.0939999999999941,0.70649040764171556,-6.5477022527059034,8.22267930188060742E-002
20191206123000,416.43806128342254,3.2321555318750521,0.69919508877291370,0,17.332547069553367,1,5.4314499453051202,1,3.48468019194997577E-002,2,304.85660635328327,4.2415429880973203,10.866116923961403,1.8325921919201920,1.5025654157819468,0.98744116081311373,0.75363624522069472,-2064.0809484934975,-9.20506534100198545E-003,100.87309365309287,184.42818702098984,220.71343624790649,276.30703137325656,94.384820642144106,80.535666666666671,-6.3696666666666601,0.73750023056956882,-6.8382184685601146,0.10310296188597143
20191206130000,416.58392712225503,3.1069162551633700,0.70875870618530890,0,34.317498129586163,1,19.497610233882448,1,-7.92921828055673759E-003,2,308.82282286559740,4.3917897242251120,11.518449803499314,1.8575785325579270,1.4253024938918157,0.98395161193151726,0.75807075034966631,-1061.3305107519336,-1.79020576601899815E-002,101.63509526640648,185.82136899807685,222.38071925083779,278.39427184592807,94.428487918185766,79.605999999999995,-6.7273333333333198,0.75180580483803972,-7.2234082569545421,0.16853925600372538
20191206133000,416.75844776317024,2.9122284438330355,1.0981829731848434,0,9.3208432341462863,0,8.1099783399189498,0,0.60974781096914610,0,301.33101393455274,4.5627519320829242,11.333098549311591,2.0599317244813165,1.4652778063750487,1.0046354355270508,0.94240792810821394,-7510.2932565199899,-2.52986126520496780E-003,118.97049007654154,217.51599955160560,260.31109710181704,325.87860393298024,94.481429420760293,77.688333333333333,-7.2436666666666838,0.79043212418675357,-7.7652952410191460,0.13369466436598290
20191206140000,417.14690516362862,2.8387756703120819,0.82766614678191452,0,12.438533906980688,0,11.793592417336889,1,0.28697130409233895,1,306.39080451175948,3.6067894146815087,9.6308246106418363,1.7750837040904812,1.3105405793431268,0.91854717174608380,0.81745613621388957,-3674.1082626346438,-5.17132284675122979E-003,114.06313264524684,208.54378504582087,249.57364787395210,312.43659165177019,94.523730458980580,77.659999999999997,-7.5636666666666770,0.77210113238101263,-8.0762765496315296,9.45925242413088452E-002
20191206143000,417.12011999318486,2.7538394198794407,0.87286005050365156,0,21.530538207482831,0,13.011683729731459,0,0.66641391595100274,0,299.97231597279563,4.0982495117347559,10.616232190631637,1.7181779933747841,1.3088324876597166,0.97188050910241475,0.83894373795674548,-2295.0820716974390,-8.27857105168689281E-003,111.31427734131184,203.51800084779433,243.55906779210906,304.90705110533901,94.564437013454864,76.634666666666661,-7.7786666666666520,0.79419955863219571,-8.3069485134548131,7.79734063305220770E-002
20191206150000,417.57077636652622,2.7981245806473880,0.28036365926603501,0,12.022120757568192,0,4.0875510779487891,0,0.20492590879260486,0,309.24104637808034,2.8100946069344608,7.0580920932344871,1.1994620513447019,0.92802668500932373,0.64258962878089754,0.47526968833288646,-747.53237835137077,-2.54169592518562783E-002,98.369400300432119,179.85063706028663,215.23527806751790,269.44902739330792,94.605171445312507,78.578333333333333,-7.8903333333333308,0.72185313522307926,-8.4039107852511847,4.42340132868502545E-002
20191206153000,417.75903442127992,2.8449943383693523,0.27594530945060991,0,17.414287047856369,0,3.3610108014582760,0,0.22880740734081670,0,315.09015183993927,3.0356925235760372,7.2861805160192450,1.1769825450607896,0.99644664534620064,0.64592979650057170,0.47150691924141425,-504.00691308984614,-3.76978956171837090E-002,97.341290804658428,177.97092500330649,212.98574282047082,266.63287620356817,94.630731492838549,79.522333333333336,-7.8266666666666538,0.69346003578738535,-8.3445277633666706,7.58893764489021183E-002
20191206160000,417.62274118637055,2.8692780765586163,0.37718177512537054,0,27.420173802756210,0,6.5696467722741163,0,0.53785574774995826,0,306.26722310593550,2.9321250529265788,6.5169289826071513,1.1597221078759941,0.85896317637816522,0.66532165011850952,0.55137528947653802,-511.97886983607862,-3.71109065615994466E-002,107.74259069937209,196.98781853529977,235.74410739588754,295.12364804620591,94.661224408614842,78.995000000000005,-7.6270000000000095,0.72241094855507360,-8.1379870219208783,0.10317577525757272
20191206163000,417.58499302143599,2.9046523217223075,0.53428350102405853,0,46.464596662263510,0,9.7648261557402183,0,0.76475929193274861,0,296.14057982638201,2.6151131884752630,7.7938906415939959,1.3426757360752557,0.94722191954418056,0.71136513008125934,0.65636967237839927,-509.81514090019408,-3.72684105977142965E-002,117.40852887785921,214.66023631844058,256.89347788382548,321.60015022150435,94.693531441189236,78.780000000000001,-7.4289999999999736,0.74107190959455638,-7.9505010765923316,0.10092186700892082
20191206170000,417.53400923771875,2.9366985170765716,0.40168757580268288,0,49.901590888084705,0,13.839845786755429,1,0.89375368035227110,1,300.17835492065802,2.6729853984087506,6.9903279814370576,1.2738827120067413,1.0155152467074882,0.67074189329832612,0.56921191221733880,-309.60786288871418,-6.13679504865462105E-002,109.80692707264605,200.76208381196236,240.26093897125051,300.77818519182733,94.697343511501742,79.102333333333334,-7.3393333333333430,0.73488966973279102,-7.8654175940619098,0.16600509769201341
20191206173000,416.99984003284578,2.9186603887755003,0.56927945585037609,0,89.805687446947246,1,13.366291611716800,0,-0.19190495976365485,2,294.50167558531962,2.8725491748583347,7.4998152153654125,1.2790463277260615,1.0489432547573283,0.75236295707350875,0.67825255824762432,-291.01476783096075,-6.52887829082143545E-002,115.24607105747828,210.70657374223597,252.16195355962031,315.67684323070091,94.678887560980911,75.986999999999995,-6.9006666666666661,0.87349477593305558,-7.4429903411864871,0.18435011027162918
20191206180000,417.09116901399460,2.9722313004506651,0.49127673183634263,0,64.118103170545822,0,12.291973042345125,1,0.49755946326497730,1,300.69467922255444,2.3539543760148560,7.2777617843078266,1.3028048182896388,1.0942903595523816,0.67665921016177832,0.63032959283345935,-327.16263901101246,-5.80750909010745858E-002,118.30771307293828,216.30423180713530,258.86092060148644,324.06315503876999,94.676503406032992,76.177333333333337,-6.6970000000000027,0.88024973139473051,-7.2059742312960680,0.17310201350911905
20191206183000,417.05267490733968,3.0280935883703384,0.68311155878524765,0,65.327252164457704,0,16.444987995886642,0,1.3193482140623112,1,287.21709218610681,3.1668177032142122,8.1161159693000862,1.3821100562823712,1.1698947540175415,0.81274685816293712,0.74339869629297384,-526.75742899037448,-3.60697333427587793E-002,116.59182396372466,213.16703926072998,255.10650237359576,319.36306893292482,94.674740101199987,77.150000000000006,-6.6200000000000045,0.84931768732291968,-7.1741593233973617,0.14461136706706926
20191206190000,416.50182046389494,3.0368092579160724,0.44030052230103700,0,57.252616684133976,0,19.970753011520809,1,1.2364162606314781,1,283.24530090959081,3.6378381223500948,8.6526283381728692,1.4203050439337050,1.5066671657877677,0.81409777575300935,0.59741386775806238,-311.94658126552497,-6.09078641699472290E-002,97.753853163184985,178.72522057470860,213.88844196966210,267.76294842017779,94.676918803168405,74.311723718697365,-6.0929158528645075,0.99415874692738160,-7.3104660593668314,0.15638024513535645
20191206193000,416.28122548417497,2.9483472285869965,0.31762395200779292,0,59.458298232393446,0,17.482531622799684,0,0.53577808286638717,0,301.93148723145509,2.3943331478354022,7.7164867278218958,1.2455116773865800,0.92022959548399497,0.66480528124859239,0.50743551095108930,-184.06625562071031,-0.10322370026992718,100.87975440280896,184.44036499580801,220.72801017346569,276.32527619865175,94.677021057725696,71.936898186663882,-6.0547377285427046,1.0892401905241638,-7.3604934912787030,0.14969305576316835
20191206200000,416.50992581305485,2.9840423493550197,0.39557194535955770,0,59.580148784019507,0,7.0425788050462668,0,-0.13906343154638809,2,277.34944289720011,2.7427782093369641,7.0267639501942973,1.1988921504809817,1.1885222145864021,0.64327135052318485,0.56624725443746970,-255.28466924348410,-7.44267176572137867E-002,113.06922607089199,206.72660683765665,247.39894967256984,309.71412756271593,94.695769871527787,72.759322298769845,-6.0434251386853930,1.0582330071325361,-7.3200570424397711,0.19206714226839602
20191206203000,416.51463157924172,2.9471326365653376,0.42741709194605870,0,59.518614053135472,0,14.042714788027222,0,0.38889788052773350,0,251.61122260206116,2.6565176837628881,6.5590546651546484,1.2409110866176503,1.0292313678015630,0.64612438460239829,0.58847252216502166,-286.89793446420305,-6.62256423542522121E-002,116.19379749244148,212.43931992719220,254.23560819346224,318.27281276346059,94.725193335058634,72.034725740385568,-6.0712561658670552,1.0840737721693001,-7.3930744586705259,0.18406728979700557
20191206210000,416.48062809926876,2.9035417437335949,0.30768897464971029,0,45.138325232156909,0,10.454253421632357,0,0.62257389051561218,0,254.83429091031218,2.1378774990394445,6.1746803156866390,1.0504512703144051,0.92052819905917294,0.59510347809174924,0.49911699707184704,-230.86821812462983,-8.22980319869892618E-002,108.77843260864171,198.88166791027726,238.01056140185605,297.96097951446228,94.757047486111119,71.510707847658409,-6.1662656606038126,1.0963940135651160,-7.4716616261799800,0.15666817359842897
20191206213000,417.06401720881752,2.8802282031646849,0.24615491705141740,0,52.414929567150793,0,7.7394153312506715,0,-0.23524136981263322,2,289.46833310755460,1.9037064477930203,5.3600208134335281,0.87015741537993729,0.84242917018050012,0.50426408136218925,0.44638898807186045,-142.23354987262195,-0.13358311043361820,113.57931632173951,207.65921450114737,248.51504285444742,311.11134378599172,94.761892905381941,71.101509048696784,-6.1959660356309314,1.1096178948545241,-7.7571466412014161,0.16259049626552904
20191206220000,417.34920773049515,2.8913589438075178,8.64666592595201428E-002,0,-1.8288346100991777,2,0.29576522878258182,2,-4.79413107429538521E-002,2,255.65333388425597,1.3588095879019795,3.6198655326242886,0.55221465571138317,0.60858644361257030,0.27825609848224547,0.26415355856771416,844.73740385259373,2.24921968807663825E-002,120.11142492838808,219.60199234328863,262.80749770346875,329.00380125257624,94.765814299327928,76.024280654692674,-7.0171704613722454,0.86434975776349354,-7.8908078510849009,6.44909412080035965E-002
20191206223000,417.36414276931811,2.8821204856461384,4.06299197273150073E-002,1,-4.0693991531685416,1,0.44086873094576201,1,6.56294557558246977E-002,1,234.64869025934524,1.3890889032655465,2.4354892997671609,0.47053414749724015,0.22111293359177847,0.17907903941606707,0.18079100965020067,121.72303147576982,0.15609207041300266,88.663309493627011,721.00000000000000,1276.0000000000000,3229.0000000000000,94.780974668087040,80.544942122936007,-7.8037915773641089,0.66000015168012338,-8.1878895809552432,8.16753875741581675E-002